Wind_Speed
3 4 4 4 4 4 3 1 0 1 1 2 2 1 0 0 1 2 2 2 2 2 3 3 4 4 4 5 5 5 5 6 6 7 7 7 7 7 8 9 10 10 9
4 4 5 5 5 5 4 2 1 1 2 2 2 2 1 1 0 1 1 1 2 2 2 2 2 2 3 4 4 4 5 5 5 5 6 7 7 8 8 9 10 9 9
4 5 5 6 6 6 5 3 2 2 2 2 3 3 2 2 1 1 1 2 2 2 2 2 1 2 2 2 3 3 3 4 4 5 5 6 7 7 7 8 9 9 9
5 5 5 6 6 6 6 5 3 3 3 2 3 3 3 2 2 2 2 2 3 2 2 2 2 1 1 1 2 2 2 2 3 4 5 5 6 6 7 8 8 8 8
6 6 6 7 7 7 7 6 5 4 3 3 3 3 3 3 3 3 3 3 3 3 3 3 3 2 2 1 1 2 2 2 2 3 3 4 4 5 6 7 7 7 7
6 6 6 7 8 8 8 7 6 5 4 4 4 4 4 4 4 4 4 4 4 5 5 4 4 3 3 2 2 2 1 2 2 2 2 3 3 4 5 6 6 6 6
6 7 8 8 8 9 9 8 8 6 6 5 5 5 5 5 5 5 6 5 5 6 6 5 5 4 4 3 3 2 2 2 1 0 1 2 3 4 4 5 5 5 5
7 8 9 9 9 9 10 10 9 8 7 7 6 6 6 6 6 7 7 7 7 7 7 6 5 5 5 4 3 3 3 3 2 1 1 2 3 3 3 4 4 4 4
9 9 10 10 11 11 11 11 10 9 8 8 8 7 6 6 7 8 8 8 8 8 8 7 6 6 6 5 4 3 3 3 3 3 2 2 2 3 3 3 3 3 4
12 11 11 12 12 12 12 12 11 10 10 9 8 8 8 8 8 8 8 8 9 8 8 7 7 7 7 6 5 4 4 3 3 3 2 2 2 3 3 3 3 3 3
13 13 14 13 13 13 13 13 12 11 11 10 9 9 9 9 9 9 9 9 8 8 8 7 8 8 7 6 5 4 4 4 3 3 3 2 2 3 4 4 4 4 4
14 14 15 15 14 14 14 13 13 12 11 11 10 9 9 9 9 9 9 9 9 8 8 8 8 8 8 6 6 5 5 5 4 4 3 4 3 3 4 4 5 5 5
15 16 16 16 15 15 15 14 14 12 11 10 10 10 10 9 9 9 9 9 9 8 8 8 8 7 7 6 6 5 6 6 6 5 4 4 4 5 4 5 5 6 6
14 16 16 16 16 17 16 14 14 13 11 10 10 9 9 9 9 8 8 8 8 8 7 7 6 6 5 5 5 4 5 7 6 6 6 5 5 6 6 6 7 7 7
17 17 17 17 17 17 17 15 14 13 12 11 11 10 9 9 8 7 7 7 7 7 7 6 6 5 5 5 4 4 4 5 6 7 7 7 6 6 7 7 8 8 9
18 18 18 18 19 18 18 17 15 14 13 12 11 11 9 8 8 7 6 5 5 5 5 5 5 4 4 4 3 3 3 4 5 6 7 7 7 7 7 8 8 9 9
17 18 19 19 20 18 17 17 16 15 14 13 11 11 10 8 8 7 6 5 5 5 4 4 4 4 3 3 3 3 3 3 3 5 6 6 7 7 8 8 9 9 10
16 18 19 19 19 19 17 16 15 15 14 13 13 11 10 9 9 8 7 6 6 5 4 3 3 3 3 3 3 2 2 3 3 4 5 6 6 7 8 8 9 9 9
15 18 19 19 18 18 18 17 16 15 14 14 13 12 11 10 9 8 7 6 6 5 4 4 3 2 2 2 2 2 2 3 3 4 4 5 6 7 7 8 8 9 10
15 17 19 20 19 17 17 17 16 16 14 13 12 11 11 10 10 9 7 7 6 5 5 4 3 2 1 1 1 2 2 2 3 3 4 4 5 6 6 7 7 8 9
13 16 16 19 19 17 17 17 17 16 14 13 12 11 12 11 10 9 8 7 6 6 5 5 4 2 2 1 1 1 2 2 2 3 4 4 5 5 6 7 7 8 9
11 13 14 15 17 17 17 17 17 16 14 13 13 12 12 11 10 9 9 8 7 6 6 5 4 3 2 2 1 1 1 2 3 3 4 4 4 5 6 7 8 9 9
9 11 12 12 16 17 18 18 17 15 14 13 13 12 12 12 11 10 10 9 8 7 6 5 5 4 2 1 1 0 1 2 4 4 5 5 5 6 7 7 8 9 10
6 8 10 12 14 16 17 17 16 15 15 14 14 13 13 13 12 11 11 10 8 7 6 6 5 4 2 1 1 1 1 2 3 4 5 6 7 7 7 8 9 9 10
5 7 11 12 14 15 17 17 17 16 15 13 15 14 13 13 13 12 11 10 9 7 7 6 5 3 2 1 1 1 2 3 4 5 5 6 7 8 8 9 9 10 11
7 8 11 12 14 15 16 17 16 16 14 14 15 14 14 13 13 12 11 9 8 7 6 5 4 3 2 2 2 3 4 5 5 6 7 7 8 9 9 10 11 11 12
Wind_Direction
196 190 182 176 173 165 154 137 63 310 308 310 316 315 313 101 79 76 79 70 67 70 76 83 84 80 77 78 78 79 81 85 88 87 84 87 91 96 99 102 104 100 96
211 200 196 193 193 190 184 188 213 249 277 290 297 297 289 282 303 22 41 32 28 42 53 58 67 75 74 75 78 78 79 83 88 90 88 92 95 97 102 106 104 101 100
227 212 206 205 202 200 199 204 219 234 250 279 288 287 286 291 300 312 335 348 350 355 2 6 19 50 60 66 70 73 77 83 86 92 93 97 100 102 109 109 106 105 100
239 226 219 213 208 208 210 210 216 226 236 261 278 281 284 291 300 306 314 321 325 331 333 336 340 355 18 37 52 58 65 76 90 86 90 92 100 107 112 114 111 108 102
235 228 224 219 213 211 212 211 218 226 233 250 270 275 281 287 290 297 299 305 311 315 319 319 319 316 321 341 6 27 37 54 88 83 88 90 98 113 123 120 116 113 110
233 233 231 225 218 215 214 213 219 223 229 243 258 270 275 278 280 286 289 291 300 308 309 309 308 308 305 308 321 334 359 41 51 90 100 104 108 120 128 127 127 124 119
239 233 232 231 224 221 220 217 219 225 229 237 249 261 268 275 279 282 287 291 296 301 301 300 297 299 303 304 301 310 322 337 354 153 149 150 142 134 132 140 141 136 129
246 234 233 231 228 224 222 221 223 228 232 239 248 251 261 270 275 281 285 291 298 297 293 293 291 289 293 296 299 296 301 297 279 260 219 189 166 150 149 153 154 153 147
255 243 233 230 232 229 226 226 227 230 234 242 247 247 258 269 273 279 283 288 294 293 288 288 290 287 286 290 298 297 297 292 269 250 221 202 184 176 174 173 174 176 172
250 242 238 234 232 231 230 227 229 233 237 242 249 252 256 264 272 276 281 287 291 289 286 283 284 284 283 284 289 285 287 289 277 248 238 233 215 200 194 193 194 198 195
251 243 237 233 232 230 227 227 229 235 241 244 248 253 256 260 265 269 277 283 286 283 280 278 280 281 281 280 278 275 276 275 270 258 252 239 230 215 206 204 208 214 216
248 240 233 231 231 228 226 227 229 233 240 246 251 253 254 256 262 266 273 277 278 277 275 272 276 281 282 278 272 265 264 265 260 263 258 244 237 230 223 220 219 229 232
247 242 236 227 226 225 224 226 228 231 239 247 250 250 252 253 260 264 268 272 272 271 272 269 273 282 284 279 270 257 254 255 258 255 263 255 247 249 248 243 235 238 245
252 244 231 228 227 225 223 225 227 230 238 245 244 245 249 250 252 259 263 267 267 266 265 265 267 272 278 278 269 256 253 255 257 256 261 263 263 266 259 260 252 249 249
251 246 234 226 224 224 223 224 227 229 232 238 236 237 245 243 247 255 260 257 253 255 254 253 254 263 270 272 271 266 255 251 253 253 259 267 269 270 265 261 256 253 254
251 240 235 226 224 224 225 223 225 228 231 235 238 233 236 240 248 250 248 243 238 244 246 243 245 258 269 278 278 266 264 249 253 255 258 263 267 271 268 261 258 259 260
247 238 232 226 224 223 222 223 226 228 228 232 234 229 227 233 241 239 236 229 228 234 236 237 243 250 257 268 273 276 270 256 267 267 266 267 271 274 274 267 261 262 262
237 232 228 226 223 222 221 223 226 226 225 225 223 219 221 225 230 227 224 224 224 224 222 222 230 245 259 270 273 280 285 291 290 277 276 278 278 280 280 276 270 265 265
234 224 222 222 218 219 220 220 219 221 218 217 214 212 216 217 218 216 216 215 213 212 210 212 214 229 254 263 281 301 310 310 309 300 296 294 290 287 285 280 274 268 270
229 219 219 217 213 217 217 212 212 210 209 209 207 206 210 207 207 206 208 206 205 201 201 200 199 210 236 261 305 325 341 351 340 328 324 316 307 302 298 291 287 283 279
220 216 215 212 211 211 207 203 202 201 203 206 203 201 201 201 202 202 199 195 190 187 184 179 171 164 143 100 62 31 12 6 349 337 330 322 316 310 305 300 295 291 288
218 212 209 210 206 201 198 197 195 196 201 203 198 196 196 194 191 190 187 183 180 176 174 171 166 159 146 128 99 64 19 1 352 343 337 332 325 318 313 307 302 297 293
204 206 208 203 197 192 189 191 190 193 196 194 192 192 190 187 185 184 183 181 178 174 172 168 165 159 158 161 149 61 3 349 347 341 335 329 324 322 320 315 309 303 299
178 191 188 183 184 184 183 183 186 188 189 190 189 187 187 184 181 180 179 179 178 174 172 169 168 169 174 176 158 33 8 353 347 336 330 326 324 321 318 315 313 310 303
160 173 177 177 175 177 179 181 183 185 188 187 186 185 182 179 178 179 178 178 177 174 176 177 181 189 192 207 261 315 326 330 334 334 331 329 326 322 317 313 312 310 306
155 160 171 173 174 177 178 178 181 183 185 183 183 184 181 177 178 179 179 179 179 180 185 195 205 222 242 259 283 305 314 319 323 325 324 323 322 320 317 314 313 310 307
Height
5895 5895 5895 5896 5897 5898 5898 5899 5900 5900 5900 5901 5901 5901 5900 5900 5900 5900 5899 5899 5899 5898 5898 5897 5897 5897 5896 5896 5896 5895 5895 5894 5894 5893 5893 5893 5893 5892 5892 5892 5893 5893 5893
5895 5895 5895 5896 5897 5898 5898 5899 5900 5900 5900 5901 5901 5901 5901 5901 5900 5900 5900 5900 5899 5899 5898 5898 5898 5897 5897 5897 5896 5896 5896 5895 5895 5894 5894 5894 5894 5893 5893 5894 5894 5894 5895
5894 5894 5895 5896 5896 5897 5898 5899 5899 5900 5900 5901 5901 5901 5901 5901 5901 5901 5900 5900 5900 5899 5899 5898 5898 5898 5897 5897 5897 5897 5896 5896 5896 5895 5895 5895 5895 5895 5895 5895 5895 5896 5896
5893 5893 5894 5895 5896 5897 5898 5898 5899 5900 5900 5900 5901 5901 5901 5901 5901 5901 5901 5900 5900 5900 5899 5899 5898 5898 5898 5897 5897 5897 5897 5896 5896 5896 5896 5896 5896 5896 5896 5896 5897 5897 5898
5891 5892 5893 5894 5895 5896 5897 5898 5899 5899 5900 5900 5901 5901 5901 5901 5901 5901 5901 5900 5900 5900 5899 5899 5898 5898 5898 5897 5897 5897 5897 5897 5897 5897 5897 5897 5897 5897 5897 5897 5898 5898 5899
5889 5890 5892 5893 5894 5895 5896 5897 5898 5898 5899 5900 5900 5901 5901 5901 5901 5901 5901 5900 5900 5900 5899 5899 5898 5898 5897 5897 5897 5897 5897 5897 5897 5897 5897 5897 5897 5898 5898 5898 5899 5899 5900
5888 5888 5890 5891 5892 5893 5894 5896 5896 5897 5898 5899 5899 5900 5900 5900 5901 5901 5900 5900 5900 5899 5899 5899 5898 5898 5897 5897 5897 5897 5897 5897 5897 5897 5897 5897 5898 5898 5898 5899 5900 5900 5900
5885 5886 5888 5889 5890 5892 5893 5894 5895 5896 5897 5898 5898 5899 5899 5900 5900 5900 5900 5900 5899 5899 5899 5898 5898 5897 5897 5897 5897 5897 5897 5897 5897 5897 5897 5898 5898 5898 5899 5899 5900 5901 5901
5883 5884 5885 5887 5889 5890 5891 5893 5894 5895 5896 5896 5897 5898 5898 5899 5899 5899 5899 5899 5898 5898 5898 5897 5897 5897 5896 5896 5896 5897 5897 5897 5897 5897 5897 5897 5898 5898 5898 5899 5900 5901 5901
5880 5880 5882 5884 5886 5888 5889 5891 5892 5893 5894 5895 5896 5896 5897 5897 5898 5898 5898 5897 5897 5897 5897 5896 5896 5895 5895 5896 5896 5896 5896 5896 5896 5896 5897 5897 5897 5897 5898 5899 5900 5900 5901
5876 5878 5879 5881 5883 5885 5887 5888 5890 5891 5892 5893 5894 5895 5895 5896 5896 5896 5896 5896 5896 5896 5895 5895 5895 5894 5894 5895 5895 5895 5896 5896 5896 5896 5896 5896 5897 5897 5897 5898 5899 5900 5900
5872 5873 5875 5878 5880 5882 5884 5885 5887 5889 5890 5891 5892 5893 5893 5894 5894 5894 5894 5894 5894 5894 5894 5894 5893 5893 5893 5893 5894 5894 5894 5895 5895 5895 5896 5896 5896 5896 5897 5897 5898 5899 5899
5865 5868 5871 5874 5877 5879 5881 5883 5885 5886 5888 5889 5890 5891 5891 5892 5892 5892 5893 5893 5893 5893 5892 5892 5892 5891 5891 5892 5892 5893 5893 5893 5894 5894 5895 5895 5895 5896 5896 5896 5896 5897 5898
5863 5865 5867 5870 5873 5875 5878 5880 5883 5884 5885 5887 5888 5889 5889 5890 5890 5891 5891 5891 5891 5891 5891 5891 5890 5890 5890 5890 5891 5892 5892 5892 5893 5893 5893 5894 5894 5894 5894 5895 5895 5895 5896
5859 5861 5864 5867 5870 5872 5875 5878 5880 5882 5883 5885 5886 5887 5888 5888 5889 5889 5889 5889 5889 5889 5889 5889 5889 5889 5889 5889 5890 5890 5891 5891 5891 5892 5892 5892 5892 5893 5893 5893 5893 5893 5894
5855 5857 5859 5863 5866 5869 5872 5875 5877 5879 5881 5882 5884 5885 5886 5887 5887 5887 5887 5888 5888 5888 5888 5888 5888 5888 5888 5888 5889 5889 5890 5890 5890 5891 5891 5891 5891 5891 5891 5891 5891 5892 5892
5850 5853 5855 5859 5861 5864 5868 5871 5874 5876 5878 5880 5881 5883 5884 5885 5885 5886 5886 5887 5887 5887 5887 5887 5887 5888 5888 5888 5888 5888 5889 5889 5889 5889 5889 5889 5889 5889 5889 5889 5889 5889 5890
5846 5849 5852 5855 5858 5861 5864 5868 5870 5873 5875 5877 5879 5880 5882 5883 5884 5885 5885 5886 5886 5886 5887 5887 5887 5887 5887 5887 5887 5887 5888 5888 5888 5888 5888 5888 5888 5888 5887 5887 5887 5887 5887
5841 5845 5848 5851 5855 5858 5861 5864 5867 5869 5872 5874 5876 5878 5879 5881 5882 5883 5884 5884 5885 5885 5886 5886 5886 5886 5886 5886 5886 5886 5886 5886 5886 5886 5886 5886 5886 5886 5885 5885 5885 5885 5885
5836 5839 5843 5847 5851 5854 5858 5861 5864 5866 5869 5871 5874 5876 5877 5879 5881 5881 5882 5883 5884 5884 5885 5885 5885 5885 5886 5886 5886 5886 5886 5885 5885 5885 5885 5884 5884 5884 5884 5883 5883 5882 5882
5832 5835 5839 5842 5847 5851 5854 5857 5861 5864 5867 5869 5871 5874 5876 5877 5879 5880 5881 5882 5883 5884 5884 5884 5885 5885 5885 5885 5885 5885 5885 5885 5885 5884 5884 5883 5883 5882 5882 5881 5881 5880 5880
5829 5831 5836 5839 5842 5847 5851 5855 5858 5862 5865 5867 5869 5872 5874 5876 5877 5878 5880 5881 5882 5883 5883 5884 5884 5885 5885 5885 5885 5885 5884 5885 5884 5883 5883 5882 5882 5881 5880 5879 5878 5878 5877
5829 5832 5835 5837 5840 5845 5849 5853 5857 5860 5863 5866 5868 5870 5872 5874 5876 5877 5878 5880 5881 5882 5883 5883 5883 5884 5884 5884 5884 5884 5884 5883 5883 5882 5881 5881 5880 5879 5878 5877 5876 5875 5875
5830 5831 5834 5837 5840 5843 5847 5851 5855 5859 5862 5864 5867 5869 5871 5872 5874 5876 5877 5879 5880 5881 5882 5882 5883 5883 5883 5883 5883 5883 5883 5882 5882 5881 5880 5879 5878 5877 5876 5875 5874 5873 5872
5830 5832 5834 5837 5840 5843 5847 5850 5854 5858 5861 5863 5865 5867 5869 5871 5873 5875 5876 5878 5879 5880 5881 5881 5882 5882 5882 5882 5882 5882 5881 5881 5880 5880 5879 5878 5876 5875 5874 5873 5872 5870 5869
5831 5833 5835 5837 5840 5843 5847 5850 5853 5856 5859 5861 5864 5866 5868 5870 5872 5874 5875 5877 5878 5879 5880 5880 5880 5881 5881 5880 5880 5880 5880 5879 5878 5878 5877 5876 5874 5873 5872 5870 5869 5867 5866